Voltar ao catálogo

NAVSTAR 62

USA 201

AtivoNavegaçãoHEO
NORAD 32711·PAYLOAD·🇺🇸 United States

Lançado Mar 15, 2008 de Cape Canaveral Space Force Station

Loading…

Próximas Passagens (próximas 24 horas)

TLE

AtualizadoSource: CelesTrak SupGP

Época: Sep 16, 2026, 16:44 UTC

1 32711C 08012A   26259.69756944  .00000000  00000+0  00000+0 0  2596
2 32711  54.5051 146.2681 0211437 248.5546 340.3978  2.00552851    19

Acompanhe NAVSTAR 62 em tempo real com AllMySat

Download on the App Store